Winfield, KS

9:27 PM CDT on April 20, 2018 (GMT -0500)
Strother

Weather History for KWLD - May, 2013

Change the Weather History Date:

Wednesday, May 15, 2013

  Actual Average Record
Temperature  
Mean Temperature 70 °F -  
Max Temperature 75 °F 76 °F 88 °F (2001)
Min Temperature 64 °F 54 °F 39 °F (2011)
Cooling Degree Days 4    
Growing Degree Days 20 (Base 50)    
Moisture  
Dew Point 63 °F    
Average Humidity 78    
Maximum Humidity 94    
Minimum Humidity 57    
Precipitation  
Precipitation 0.00 in - - ()
Sea Level Pressure  
Sea Level Pressure 29.86 in    
Wind  
Wind Speed 14 mph (SSE)    
Max Wind Speed 22 mph    
Max Gust Speed 28 mph    
Visibility 10 miles    
Events Rain    
Averages and records for this station are not official NWS values.
T = Trace of Precipitation, MM = Missing Value Source: NWS Daily Summary

Daily Weather History Graph

Daily Weather History Graph

Search for Another Location

Airport or City:

Astronomy

May. 15, 2013 Rise Set
Actual Time 6:19 AM CDT 8:30 PM CDT
Civil Twilight 5:50 AM CDT 8:59 PM CDT
Nautical Twilight 5:14 AM CDT 9:34 PM CDT
Astronomical Twilight 4:36 AM CDT 10:13 PM CDT
Moon 10:55 AM CDT (5/15) 12:18 AM CDT (5/15)
Length of Visible Light 15h 08m
Length of Day
14h 10m
Waxing Crescent, 27% of the Moon is Illuminated
May 15
Waxing Crescent
May 17
First Quarter
May 24
Full
May 31
Last Quarter
Jun 8
New

Hourly Weather History & Observations

Time (CDT) Temp. Dew Point Humidity Pressure Visibility Wind Dir Wind Speed Gust Speed Precip Events Conditions
12:54 AM 72.0 °F 55.9 °F 57% 29.87 in 10.0 mi South 19.6 mph 25.3 mph N/A   Clear
1:54 AM 71.1 °F 55.0 °F 57% 29.87 in 10.0 mi South 17.3 mph 23.0 mph N/A   Clear
2:54 AM 68.0 °F 55.0 °F 63% 29.87 in 10.0 mi South 15.0 mph 21.9 mph N/A   Clear
3:54 AM 66.0 °F 55.0 °F 68% 29.86 in 10.0 mi South 12.7 mph - N/A   Clear
4:54 AM 66.0 °F 55.9 °F 70% 29.87 in 10.0 mi South 13.8 mph - N/A   Clear
5:54 AM 64.9 °F 55.9 °F 73% 29.87 in 10.0 mi South 12.7 mph - N/A   Clear
6:54 AM 64.0 °F 57.0 °F 78% 29.88 in 10.0 mi South 9.2 mph - N/A   Clear
8:54 AM 72.0 °F 62.1 °F 71% 29.88 in 10.0 mi South 11.5 mph - N/A   Clear
9:54 AM 75.9 °F 63.0 °F 64% 29.89 in 10.0 mi SSW 13.8 mph 19.6 mph N/A   Clear
10:54 AM 75.9 °F 64.0 °F 67% 29.89 in 10.0 mi South 21.9 mph 27.6 mph N/A   Clear
11:54 AM 73.9 °F 64.0 °F 71% 29.90 in 10.0 mi SSW 16.1 mph 24.2 mph N/A   Clear
12:54 PM 73.9 °F 66.0 °F 76% 29.89 in 10.0 mi South 16.1 mph 27.6 mph N/A   Partly Cloudy
1:30 PM 71.6 °F 66.2 °F 83% 29.91 in 10.0 mi South 11.5 mph 19.6 mph N/A   Mostly Cloudy
1:51 PM 73.4 °F 66.2 °F 78% 29.90 in 10.0 mi South 9.2 mph - N/A   Mostly Cloudy
1:54 PM 73.0 °F 66.0 °F 79% 29.87 in 10.0 mi South 11.5 mph - N/A   Mostly Cloudy
2:54 PM 73.0 °F 66.0 °F 79% 29.87 in 10.0 mi South 16.1 mph 21.9 mph N/A   Scattered Clouds
3:54 PM 75.0 °F 66.9 °F 76% 29.85 in 10.0 mi South 15.0 mph - N/A   Partly Cloudy
4:54 PM 73.0 °F 66.9 °F 81% 29.84 in 8.0 mi SSE 11.5 mph - 0.00 in Rain Light Rain
5:54 PM 72.0 °F 68.0 °F 87% 29.84 in 8.0 mi ESE 9.2 mph - 0.00 in   Partly Cloudy
6:21 PM 71.6 °F 66.2 °F 83% 29.85 in 8.0 mi SE 12.7 mph - N/A   Mostly Cloudy
6:28 PM 71.6 °F 66.2 °F 83% 29.85 in 9.0 mi SE 11.5 mph - N/A   Scattered Clouds
6:54 PM 72.0 °F 66.9 °F 84% 29.81 in 9.0 mi SE 6.9 mph - N/A   Clear
7:54 PM 71.1 °F 66.0 °F 84% 29.79 in 10.0 mi SSE 10.4 mph - N/A   Scattered Clouds
8:54 PM 70.0 °F 64.9 °F 84% 29.81 in 10.0 mi SE 10.4 mph - N/A   Clear
9:45 PM 69.8 °F 64.4 °F 83% 29.86 in 10.0 mi ESE 5.8 mph - N/A   Mostly Cloudy
9:54 PM 69.1 °F 66.0 °F 90% 29.83 in 10.0 mi ESE 9.2 mph - N/A   Overcast
10:54 PM 68.0 °F 64.9 °F 90% 29.82 in 8.0 mi ESE 9.2 mph - N/A   Overcast
11:25 PM 68.0 °F 64.4 °F 88% 29.86 in 8.0 mi ESE 4.6 mph - N/A   Mostly Cloudy
11:46 PM 66.2 °F 64.4 °F 94% 29.86 in 8.0 mi SE 4.6 mph - N/A   Mostly Cloudy
11:54 PM 66.9 °F 64.9 °F 93% 29.84 in 8.0 mi SSE 3.5 mph - N/A   Mostly Cloudy